Waarnemingen

Advertentie
Mijn weer
Schaffen, België (6465): temperatuur & dauwpunt: 03.12.2018 20:00:00 - 09.12.2018 20:00:00 (CET)Schaffen, België (6465): windsnelheid & windstoten: 03.12.2018 20:00:00 - 09.12.2018 20:00:00 (CET)Schaffen, België (6465): windrichting: 03.12.2018 20:00:00 - 09.12.2018 20:00:00 (CET)Schaffen, België (6465): luchtdruk: 03.12.2018 20:00:00 - 09.12.2018 20:00:00 (CET)Schaffen, België (6465): zicht: 03.12.2018 20:00:00 - 09.12.2018 20:00:00 (CET)
Datum & Tijd tt [°C] td [°C] ff [km/u] ff [kn] fx [km/u] fx [kn] dd ppp [hPa] vv [km]
09.12.2018 20:00:00 6,4 5,3 14 8 40 21 WNW 1014,3 10
09.12.2018 19:00:00 6,9 4,7 22 12 - - NW 1012,8 20
09.12.2018 18:00:00 6,9 4,7 18 10 40 21 WNW 1011,1 20
09.12.2018 17:00:00 7,8 4,9 22 12 47 25 WNW 1009,5 20
09.12.2018 16:00:00 8,4 4,9 29 16 - - NW 1007,5 20
09.12.2018 15:00:00 8,7 5,7 22 12 43 23 WNW 1005,5 20
09.12.2018 14:00:00 8,3 6,8 22 12 40 21 NW 1004,0 20
09.12.2018 13:00:00 8,1 7,2 18 10 - - W 1002,6 19
09.12.2018 12:00:00 6,5 5,9 16 9 36 19 WNW 1002,2 10
09.12.2018 11:00:00 6,1 5,8 11 6 36 19 NW 1001,8 8
09.12.2018 10:00:00 8,0 6,4 18 10 - - WZW 1000,7 10
09.12.2018 09:00:00 8,3 5,7 22 12 54 29 W 1000,3 18
09.12.2018 08:00:00 9,1 4,3 29 16 58 31 W 999,5 20
09.12.2018 07:00:00 9,4 4,2 36 19 - - W 999,3 20
09.12.2018 06:00:00 9,3 4,3 29 16 61 33 W 998,7 20
09.12.2018 05:00:00 9,6 4,6 32 18 68 37 W 998,0 20
09.12.2018 04:00:00 9,4 4,9 32 18 - - WZW 997,3 20
09.12.2018 03:00:00 9,7 5,2 29 16 54 29 W 997,7 16
09.12.2018 02:00:00 9,5 5,1 29 16 54 29 W 997,6 19
09.12.2018 01:00:00 9,8 5,8 32 18 - - WZW 997,5 20
09.12.2018 00:00:00 9,3 7,2 25 14 68 37 W 997,1 19
08.12.2018 23:00:00 11,1 7,4 25 14 58 31 W 996,9 19
08.12.2018 22:00:00 11,0 8,4 29 16 - - WZW 997,1 20
08.12.2018 21:00:00 10,6 8,7 25 14 50 27 WZW 997,3 20
08.12.2018 20:00:00 9,8 8,5 25 14 47 25 ZW 998,2 4,7
08.12.2018 19:00:00 9,0 8,1 25 14 - - ZZW 1000,2 7
08.12.2018 18:00:00 9,1 7,8 22 12 47 25 ZW 1002,3 8
08.12.2018 17:00:00 10,5 6,4 18 10 43 23 ZW 1003,7 10
08.12.2018 16:00:00 10,8 5,1 25 14 - - WZW 1004,6 16
08.12.2018 15:00:00 10,6 4,6 25 14 50 27 WZW 1005,0 19
08.12.2018 14:00:00 10,8 4,1 36 19 58 31 W 1005,2 20
08.12.2018 13:00:00 10,3 4,4 29 16 - - W 1005,3 20
08.12.2018 12:00:00 9,3 5,1 29 16 43 23 WZW 1005,7 20
08.12.2018 11:00:00 9,0 5,0 25 14 47 25 WZW 1005,6 20
08.12.2018 10:00:00 9,0 5,1 25 14 - - ZW 1005,1 19
08.12.2018 09:00:00 8,5 4,8 22 12 47 25 WZW 1005,1 18
08.12.2018 08:00:00 7,9 4,9 22 12 40 21 ZW 1005,1 20
08.12.2018 07:00:00 7,3 4,5 22 12 - - ZZW 1005,2 20
08.12.2018 06:00:00 7,4 4,3 22 12 50 27 ZW 1005,6 10
08.12.2018 05:00:00 7,5 4,3 18 10 40 21 ZW 1005,7 20
08.12.2018 04:00:00 6,5 4,0 22 12 - - ZZW 1006,2 20
08.12.2018 03:00:00 6,4 3,7 18 10 40 21 ZZW 1007,0 20
08.12.2018 02:00:00 6,8 3,6 18 10 43 23 ZW 1007,2 20
08.12.2018 01:00:00 6,9 3,5 18 10 - - ZW 1007,2 20
08.12.2018 00:00:00 6,5 2,8 11 6 32 18 ZW 1007,2 20
07.12.2018 23:00:00 6,9 2,8 18 10 36 19 WZW 1006,7 20
07.12.2018 22:00:00 6,9 4,5 14 8 - - WZW 1006,0 20
07.12.2018 21:00:00 7,0 4,8 14 8 47 25 WZW 1005,1 18
07.12.2018 20:00:00 7,4 3,7 22 12 36 19 W 1003,7 20
07.12.2018 19:00:00 7,1 6,0 13 7 - - W 1002,6 10
07.12.2018 18:00:00 8,6 7,3 29 16 50 27 W 1001,1 8
07.12.2018 17:00:00 10,2 8,2 25 14 43 23 WZW 999,9 7
07.12.2018 16:00:00 10,3 9,3 29 16 - - ZZW 999,6 7
07.12.2018 15:00:00 10,8 8,8 29 16 50 27 ZZW 1000,6 16
07.12.2018 14:00:00 11,3 9,4 29 16 54 29 ZZW 1002,2 20
07.12.2018 13:00:00 11,6 9,5 25 14 - - ZZW 1004,0 9
07.12.2018 12:00:00 11,8 9,7 29 16 47 25 ZZW 1005,7 20
07.12.2018 11:00:00 11,1 10,1 25 14 40 21 ZZW 1007,7 8
07.12.2018 10:00:00 11,1 9,9 22 12 - - ZZW 1008,7 10
07.12.2018 09:00:00 10,6 10,0 22 12 36 19 ZZW 1009,7 7
07.12.2018 08:00:00 10,6 10,1 18 10 40 21 ZZW 1010,3 5
07.12.2018 07:00:00 10,8 10,1 22 12 - - ZZW 1011,2 6
07.12.2018 06:00:00 10,8 10,3 18 10 36 19 ZZW 1011,8 5
07.12.2018 05:00:00 10,9 10,4 18 10 32 18 ZZW 1012,7 5
07.12.2018 04:00:00 11,1 10,3 15 8 - - ZZW 1013,6 9
07.12.2018 03:00:00 11,3 9,9 18 10 32 18 ZZW 1014,2 13
07.12.2018 02:00:00 11,3 10,1 18 10 32 18 ZZW 1014,7 17
07.12.2018 01:00:00 11,3 10,3 14 8 - - ZZW 1015,6 9
07.12.2018 00:00:00 12,1 9,4 14 8 36 19 ZW 1016,2 20
06.12.2018 23:00:00 12,1 9,4 14 8 29 16 ZW 1016,5 20
06.12.2018 22:00:00 11,6 10,6 11 6 - - ZW 1016,8 9
06.12.2018 21:00:00 12,7 10,1 18 10 32 18 WZW 1016,8 20
06.12.2018 20:00:00 12,5 10,3 14 8 29 16 ZW 1016,8 20
06.12.2018 19:00:00 12,5 10,3 14 8 - - ZW 1016,8 20
06.12.2018 18:00:00 12,3 10,4 14 8 29 16 ZW 1016,8 20
06.12.2018 17:00:00 12,3 10,4 14 8 25 14 ZW 1017,0 20
06.12.2018 16:00:00 12,0 10,8 11 6 - - ZZW 1017,1 12
06.12.2018 15:00:00 12,1 10,5 11 6 25 14 ZW 1017,1 10
06.12.2018 14:00:00 12,6 10,1 14 8 25 14 ZZW 1017,1 19
06.12.2018 13:00:00 12,6 10,3 11 6 - - ZW 1017,3 10
06.12.2018 12:00:00 12,0 10,2 11 6 22 12 ZW 1017,7 14
06.12.2018 11:00:00 11,6 10,1 11 6 22 12 ZZW 1017,3 15
06.12.2018 10:00:00 11,5 10,2 7 4 - - ZW 1016,7 10
06.12.2018 09:00:00 11,1 10,0 7 4 18 10 ZW 1016,3 8
06.12.2018 08:00:00 11,5 10,6 13 7 22 12 WZW 1015,8 8
06.12.2018 07:00:00 11,1 10,6 11 6 - - WZW 1015,0 4,0
06.12.2018 06:00:00 10,6 10,2 11 6 18 10 WZW 1014,5 8
06.12.2018 05:00:00 10,1 9,9 11 6 22 12 ZZW 1013,7 4,3
06.12.2018 04:00:00 10,4 9,3 14 8 - - ZZW 1013,6 3,3
06.12.2018 03:00:00 10,1 8,9 11 6 22 12 Z 1013,2 19
06.12.2018 02:00:00 9,5 9,0 11 6 22 12 Z 1013,3 7
06.12.2018 01:00:00 9,5 8,0 11 6 - - Z 1013,5 12
06.12.2018 00:00:00 10,1 7,2 18 10 29 16 Z 1014,0 20
05.12.2018 23:00:00 9,8 7,0 14 8 25 14 Z 1013,8 20
05.12.2018 22:00:00 9,3 7,0 14 8 - - Z 1014,2 18
05.12.2018 21:00:00 9,5 6,6 14 8 25 14 Z 1014,6 18
05.12.2018 20:00:00 8,5 6,3 14 8 22 12 ZZO 1015,0 16
05.12.2018 19:00:00 8,8 6,4 14 8 - - ZZO 1015,8 17
05.12.2018 18:00:00 8,9 6,4 14 8 25 14 ZZO 1016,3 20
05.12.2018 17:00:00 9,1 6,3 14 8 25 14 ZZO 1017,2 20
05.12.2018 16:00:00 9,1 6,2 14 8 - - ZZO 1018,0 20
05.12.2018 15:00:00 8,8 6,1 7 4 14 8 ZZO 1019,2 19
05.12.2018 14:00:00 9,0 5,4 11 6 18 10 Z 1020,2 20
05.12.2018 13:00:00 8,6 5,6 11 6 - - ZZO 1020,8 13
05.12.2018 12:00:00 7,2 5,0 11 6 18 10 ZZO 1021,7 13
05.12.2018 11:00:00 6,0 4,1 7 4 14 8 ZZO 1023,1 13
05.12.2018 10:00:00 4,8 3,4 11 6 - - ZZO 1023,6 13
05.12.2018 09:00:00 3,7 2,9 7 4 11 6 ZZO 1024,2 11
05.12.2018 08:00:00 3,1 2,5 7 4 11 6 ZZO 1024,5 11
05.12.2018 07:00:00 2,7 2,2 7 4 - - ZZO 1024,5 10
05.12.2018 06:00:00 2,5 2,0 8 4 11 6 ZO 1024,7 9
05.12.2018 05:00:00 2,2 1,9 7 4 11 6 ZO 1025,2 9
05.12.2018 04:00:00 2,0 1,8 7 4 - - ZO 1025,2 5
05.12.2018 03:00:00 2,2 1,9 7 4 11 6 ZO 1025,7 6
05.12.2018 02:00:00 2,2 2,1 7 4 11 6 ZZO 1025,9 5
05.12.2018 01:00:00 2,2 2,1 8 4 - - ZZO 1026,0 2,0
05.12.2018 00:00:00 2,4 2,1 4 2 7 4 N 1026,5 2,6
04.12.2018 23:00:00 3,0 2,8 4 2 7 4 N 1026,5 5
04.12.2018 22:00:00 3,2 2,8 5 3 - - ZZO 1026,4 4,9
04.12.2018 21:00:00 4,9 3,4 4 2 4 2 N 1026,2 17
04.12.2018 20:00:00 5,5 3,6 4 2 4 2 N 1025,7 20
04.12.2018 19:00:00 5,5 3,8 4 2 - - N 1025,5 19
04.12.2018 18:00:00 6,7 3,5 4 2 4 2 N 1025,0 20
04.12.2018 17:00:00 6,8 3,4 4 2 4 2 N 1024,9 20
04.12.2018 16:00:00 7,5 3,4 4 2 - - N 1024,2 20
04.12.2018 15:00:00 9,3 3,0 7 4 14 8 NW 1023,6 20
04.12.2018 14:00:00 8,5 3,9 11 6 14 8 WNW 1023,1 20
04.12.2018 13:00:00 8,6 4,6 8 4 - - NW 1022,2 4,3
04.12.2018 12:00:00 8,3 5,1 7 4 14 8 NW 1022,1 20
04.12.2018 11:00:00 7,5 5,3 7 4 14 8 W 1021,7 20
04.12.2018 10:00:00 6,4 5,4 11 6 - - W 1020,5 17
04.12.2018 09:00:00 5,5 5,1 11 6 14 8 W 1019,2 9
04.12.2018 08:00:00 5,8 5,1 7 4 14 8 W 1017,7 14
04.12.2018 07:00:00 5,8 5,3 11 6 - - W 1016,5 10
04.12.2018 06:00:00 6,1 5,5 11 6 18 10 W 1015,6 17
04.12.2018 05:00:00 7,0 6,3 11 6 18 10 W 1014,3 20
04.12.2018 04:00:00 7,4 6,7 11 6 - - W 1013,3 20
04.12.2018 03:00:00 7,6 7,0 11 6 18 10 W 1012,3 19
04.12.2018 02:00:00 7,6 7,2 11 6 36 19 WNW 1011,2 10
04.12.2018 01:00:00 8,3 8,1 11 6 - - NW 1010,1 4,0
04.12.2018 00:00:00 9,3 7,7 14 8 36 19 WNW 1008,2 20
03.12.2018 23:00:00 10,8 8,3 22 12 43 23 W 1006,0 3,7
03.12.2018 22:00:00 11,6 8,8 22 12 - - WZW 1004,1 10
03.12.2018 21:00:00 12,3 9,2 21 11 36 19 WZW 1002,7 10
03.12.2018 20:00:00 12,3 9,3 22 12 36 19 WZW 1002,0 17

tt = temperatuur
td = dauwpunt
ff = windsnelheid
fx = windstoten
dd = windrichting
ppp = luchtdruk
vv = zicht

Weerstations in de omgeving